Regional Weather Roundup
Issued by NWS Newport/Morehead, NC

Current Version | Previous Version | Graphics & Text | Print | Product List | Glossary Off
Versions: 1 2 3 4 5 6 7 8 9 10 11 12 13 14 15 16 17 18 19 20 21 22 23 24 25 26 27 28 29 30 31 32 33 34 35 36 37 38 39 40 41 42 43 44 45 46 47 48 49 50

000
ASUS42 KMHX 270822
RWRMHX
WEATHER ROUNDUP FOR EASTERN NORTH CAROLINA
NATIONAL WEATHER SERVICE NEWPORT/MOREHEAD CITY NC
400 AM EDT WED AUG 27 2014

NOTE: "FAIR" INDICATES FEW OR NO CLOUDS BELOW 12,000 FEET
WITH NO SIGNIFICANT WEATHER AND/OR OBSTRUCTIONS TO VISIBILITY

NCZ015>017-031-032-045>047-102-103-270900-
NORTH COAST

CITY           SKY/WX    TMP DP  RH WIND       PRES   REMARKS
EDENTON        LGT RAIN  66  65  97 N6        30.01F VSB 1/4
ELIZABETH CITY FOG       69  68  96 N5        30.01S VSB 1
KITTY HAWK     PTSUNNY   74  71  91 N6        29.97F
MANTEO         MOCLDY    73  71  92 N14       29.97F

$$

NCZ045>047-081-094-103-104-270900-
CENTRAL COAST

CITY           SKY/WX    TMP DP  RH WIND       PRES   REMARKS
FRISCO         PTCLDY    74  73  97 NE12G21   29.95F
SWANQUARTER      N/A     72 N/A N/A N6G12     29.91F

$$

NCZ095-097-098-100-101-270900-
SOUTHERN COAST

CITY           SKY/WX    TMP DP  RH WIND       PRES   REMARKS
BEAUFORT       MOCLDY    73  70  90 N9        29.96F
CEDAR ISLAND     N/A     75 N/A N/A VRB16G24  30.00S
JACKSONVILLE   PTCLDY    67  65  93 N9        29.98F
NEWPORT        NOT AVBL
PINEY ISLAND   MOSUNNY   76  73  91 N13       29.96F
WILMINGTON     CLEAR     68  65  90 N8        29.97F


$$

NCZ011>013-027>030-043-044-078>080-089-090>093-098-270900-
COASTAL PLAIN

CITY           SKY/WX    TMP DP  RH WIND       PRES   REMARKS
AHOSKIE        CLOUDY    60  59  97 CALM      30.04S VSB 1/4
CLINTON        CLEAR     63  62  97 CALM      30.02F
ELIZABETHTOWN  CLEAR     63  63  98 CALM      30.01S
GOLDSBORO      CLEAR     64  63  98 NW2       30.01S
GREENVILLE     PTCLDY    63  63 100 CALM      30.04S
HAVELOCK       PTCLDY    71  68  90 N9        29.97F
KENANSVILLE    CLEAR     63  63 100 CALM      30.02S
KINSTON        CLEAR     63  63  98 N7        30.02S
NEW BERN       CLOUDY    70  67  90 N6        29.99F
RICHLANDS      CLEAR     66  63  88 NW5       29.99F
ROANOKE RAPIDS NOT AVBL
ROCKY MOUNT    CLEAR     59  57  93 CALM      30.04F
WASHINGTON     CLOUDY    65  64  98 N6        30.01S
WHITEVILLE     CLEAR     65  63  91 CALM      30.00S

$$

AMZ130-135-150-152-154-156-158-170-250-252-270-ANZ085-086-088-633-658-670-270900-
MARINE OBSERVATIONS

STATION/POSITION TIME  TEMP    WIND        PRES    WAVE   SWELL
                       AIR SEA DIR/SP/G            HT/PER HT/PER
                 (UTC) (F)     (DEG/KT/KT) (MB)    (FT/S) (FT/S)
CHESAPEAKE LIGHT 0800   73      30/ 12/ 12 1017.1
BUOY 44014       0800   76 78   50/ 16/ 16 1014.9    6/12   5/12
DUCK             0800   75 76   30/ 12/ 14 1014.7
2E DUCK          0800                        N/A     5/10   2/12
OREGON INLET     0800   75 78   20/ 11/ 17 1014.4
BUOY 44095       0800      76                N/A     7/13   3/13
20E OREGON INLET NOT AVBL
HATTERAS CG      0800   76 78   40/ 13/ 18 1014.5
DIAMOND BUOY     0800   77      10/ 19/ 23 1013.1    8/11   5/11
CAPE LOOKOUT     0800   74      20/ 13/ 17 1013.9
BEAUFORT LAB     0800   72 78   20/ 10/ 13 1013.8
30 SE NEW RIVER  0800   76 80   30/ 19/ 23 1013.6    7/12   3/12
5 SE WRIGHTSVILL 0800   69 81   10/ 17/ 21   N/A
BUOY 41002       0719   80 81   20/ 25/ 29 1007.1   12/ 9   8/ 9
BUOY 41004       0800   79 83   10/ 19/ 23 1013.5    7/11   5/11

$$



USA.gov is the U.S. government's official web portal to all federal, state and local government web resources and services.